When you browse on this site, cookies collect data to enhance your experience and personalize the content and advertising you see.
Visit our Privacy Policy to learn more. By continuing to use the site, you agree to this use of cookies and data.
  • In France
  • List of Countries
  • For 7 days
  • Water Temperature
  • Satellite Maps
  • Weather Map
  • Weather Widgets
  • user-avatar
    Login

    Hourly Weather La Paz

    Today, 25 May, Saturday

    Time Temperature Precipitation Wind Pressure Humidity
    00:00 +3°C° 0 mm 1 mps 471 mmHg 54%
    01:00 +3°C° 0 mm 1 mps 471 mmHg 42%
    02:00 +1°C° 0 mm 2 mps 471 mmHg 40%
    03:00 +1°C° 0 mm 2 mps 470 mmHg 38%
    04:00 +1°C° 0 mm 2 mps 470 mmHg 36%
    05:00 +2°C° 0 mm 2 mps 471 mmHg 37%
    06:00 +4°C° 0 mm 2 mps 472 mmHg 38%
    07:00 +5°C° 0 mm 2 mps 474 mmHg 40%
    08:00 +7°C° 0 mm 2 mps 475 mmHg 35%
    09:00 +9°C° 0 mm 3 mps 476 mmHg 31%
    10:00 +11°C° 0 mm 3 mps 478 mmHg 27%
    11:00 +12°C° 0 mm 3 mps 477 mmHg 27%
    12:00 +12°C° 0 mm 3 mps 477 mmHg 28%
    13:00 +13°C° 0 mm 3 mps 477 mmHg 29%
    14:00 +12°C° 0 mm 3 mps 476 mmHg 31%
    15:00 +11°C° 0 mm 3 mps 475 mmHg 33%
    16:00 +12°C° 0 mm 2 mps 475 mmHg 36%
    17:00 +8°C° 0 mm 2 mps 474 mmHg 44%
    18:00 +7°C° 0 mm 1 mps 472 mmHg 53%
    19:00 +5°C° 0 mm 1 mps 471 mmHg 62%
    20:00 +5°C° 0 mm 1 mps 471 mmHg 55%
    21:00 +4°C° 0 mm 1 mps 471 mmHg 48%
    22:00 +4°C° 0 mm 1 mps 471 mmHg 40%
    23:00 +4°C° 0 mm 1 mps 471 mmHg 35%

    Tomorrow, 26 May, Sunday

    Time Temperature Precipitation Wind Pressure Humidity
    00:00 +3°C° 0 mm 1 mps 471 mmHg 30%
    01:00 +3°C° 0 mm 1 mps 471 mmHg 25%
    02:00 +2°C° 0 mm 2 mps 471 mmHg 29%
    03:00 +2°C° 0 mm 2 mps 470 mmHg 33%
    04:00 +2°C° 0 mm 2 mps 470 mmHg 38%
    05:00 +3°C° 0 mm 2 mps 471 mmHg 38%
    06:00 +4°C° 0 mm 2 mps 473 mmHg 39%
    07:00 +5°C° 0 mm 2 mps 474 mmHg 39%
    08:00 +7°C° 0 mm 2 mps 475 mmHg 35%
    09:00 +9°C° 0 mm 2 mps 476 mmHg 30%
    10:00 +12°C° 0 mm 2 mps 477 mmHg 25%
    11:00 +13°C° 0 mm 2 mps 477 mmHg 27%
    12:00 +12°C° 0 mm 3 mps 477 mmHg 29%
    13:00 +13°C° 0 mm 3 mps 477 mmHg 31%
    14:00 +12°C° 0.1 mm 3 mps 476 mmHg 33%
    15:00 +12°C° 0.1 mm 3 mps 475 mmHg 35%
    16:00 +12°C° 0.1 mm 2 mps 474 mmHg 37%
    17:00 +9°C° 0 mm 2 mps 474 mmHg 47%
    18:00 +7°C° 0 mm 2 mps 473 mmHg 58%
    19:00 +5°C° 0 mm 2 mps 472 mmHg 69%
    20:00 +6°C° 0 mm 1 mps 472 mmHg 72%
    21:00 +5°C° 0 mm 1 mps 472 mmHg 74%
    22:00 +4°C° 0 mm 0 mps 472 mmHg 77%
    23:00 +5°C° 0 mm 1 mps 472 mmHg 73%

    Day after tomorrow, 27 May, Monday

    Time Temperature Precipitation Wind Pressure Humidity
    00:00 +4°C° 0 mm 1 mps 471 mmHg 68%
    01:00 +4°C° 0 mm 1 mps 471 mmHg 64%
    02:00 +4°C° 0 mm 1 mps 471 mmHg 62%
    03:00 +3°C° 0 mm 2 mps 471 mmHg 60%
    04:00 +3°C° 0 mm 2 mps 470 mmHg 57%
    05:00 +4°C° 0 mm 2 mps 471 mmHg 59%
    06:00 +3°C° 0 mm 3 mps 472 mmHg 60%
    07:00 +4°C° 0 mm 3 mps 473 mmHg 61%
    08:00 +7°C° 0 mm 3 mps 474 mmHg 53%
    09:00 +8°C° 0 mm 4 mps 476 mmHg 45%
    10:00 +11°C° 0 mm 4 mps 477 mmHg 37%
    11:00 +12°C° 0.1 mm 5 mps 477 mmHg 36%
    12:00 +12°C° 0.1 mm 5 mps 477 mmHg 35%
    13:00 +13°C° 0.1 mm 6 mps 476 mmHg 34%
    14:00 +12°C° 0.1 mm 5 mps 476 mmHg 34%
    15:00 +12°C° 0.1 mm 4 mps 475 mmHg 34%
    16:00 +11°C° 0.1 mm 4 mps 475 mmHg 34%
    17:00 +10°C° 0.1 mm 3 mps 474 mmHg 46%
    18:00 +8°C° 0.1 mm 3 mps 473 mmHg 58%
    19:00 +6°C° 0.1 mm 2 mps 472 mmHg 71%
    20:00 +6°C° 0 mm 2 mps 473 mmHg 74%
    21:00 +6°C° 0 mm 1 mps 473 mmHg 78%
    22:00 +6°C° 0 mm 1 mps 473 mmHg 82%
    23:00 +5°C° 0 mm 1 mps 472 mmHg 81%

    28 May, Tuesday

    Time Temperature Precipitation Wind Pressure Humidity
    00:00 +4°C° 0 mm 1 mps 472 mmHg 80%
    01:00 +4°C° 0 mm 1 mps 471 mmHg 80%
    02:00 +4°C° 0 mm 1 mps 471 mmHg 75%
    03:00 +3°C° 0 mm 2 mps 471 mmHg 70%
    04:00 +2°C° 0 mm 2 mps 470 mmHg 65%
    05:00 +3°C° 0 mm 2 mps 471 mmHg 64%
    06:00 +4°C° 0 mm 2 mps 472 mmHg 62%
    07:00 +5°C° 0 mm 2 mps 473 mmHg 61%
    08:00 +7°C° 0 mm 2 mps 475 mmHg 52%
    09:00 +9°C° 0 mm 3 mps 476 mmHg 43%
    10:00 +11°C° 0 mm 3 mps 477 mmHg 34%
    11:00 +12°C° 0 mm 3 mps 477 mmHg 33%
    12:00 +13°C° 0 mm 3 mps 477 mmHg 33%
    13:00 +13°C° 0 mm 3 mps 476 mmHg 32%
    14:00 +13°C° 0.1 mm 3 mps 476 mmHg 33%
    15:00 +13°C° 0.1 mm 2 mps 475 mmHg 33%
    16:00 +13°C° 0.1 mm 2 mps 475 mmHg 34%
    17:00 +10°C° 0 mm 2 mps 474 mmHg 46%
    18:00 +8°C° 0 mm 2 mps 473 mmHg 58%
    19:00 +6°C° 0 mm 2 mps 473 mmHg 70%
    20:00 +6°C° 0 mm 1 mps 472 mmHg 74%
    21:00 +6°C° 0 mm 1 mps 472 mmHg 78%
    22:00 +5°C° 0 mm 1 mps 472 mmHg 83%
    23:00 +4°C° 0 mm 1 mps 471 mmHg 77%

    29 May, Wednesday

    Time Temperature Precipitation Wind Pressure Humidity
    00:00 +4°C° 0 mm 1 mps 471 mmHg 71%
    01:00 +3°C° 0 mm 1 mps 470 mmHg 66%
    02:00 +3°C° 0 mm 1 mps 470 mmHg 58%
    03:00 +3°C° 0 mm 1 mps 470 mmHg 50%
    04:00 +3°C° 0 mm 1 mps 470 mmHg 41%
    05:00 +4°C° 0 mm 1 mps 471 mmHg 39%
    06:00 +6°C° 0 mm 1 mps 473 mmHg 36%
    07:00 +7°C° 0 mm 1 mps 474 mmHg 33%
    08:00 +9°C° 0 mm 1 mps 476 mmHg 32%
    09:00 +10°C° 0 mm 2 mps 477 mmHg 32%
    10:00 +13°C° 0 mm 2 mps 478 mmHg 32%
    11:00 +13°C° 0.2 mm 2 mps 477 mmHg 36%
    12:00 +14°C° 0.2 mm 2 mps 477 mmHg 40%
    13:00 +13°C° 0.2 mm 3 mps 476 mmHg 44%
    14:00 +14°C° 0.6 mm 2 mps 476 mmHg 46%
    15:00 +13°C° 0.6 mm 2 mps 475 mmHg 48%
    16:00 +13°C° 0.6 mm 2 mps 475 mmHg 50%
    17:00 +10°C° 0.1 mm 2 mps 475 mmHg 61%
    18:00 +9°C° 0.1 mm 3 mps 474 mmHg 72%
    19:00 +7°C° 0.1 mm 3 mps 474 mmHg 83%
    20:00 +7°C° 0 mm 2 mps 474 mmHg 85%
    21:00 +7°C° 0 mm 2 mps 474 mmHg 87%
    22:00 +7°C° 0 mm 1 mps 474 mmHg 89%
    23:00 +7°C° 0 mm 1 mps 473 mmHg 87%

    30 May, Thursday

    Time Temperature Precipitation Wind Pressure Humidity
    00:00 +6°C° 0 mm 2 mps 473 mmHg 85%
    01:00 +5°C° 0 mm 2 mps 472 mmHg 83%
    02:00 +6°C° 0.2 mm 2 mps 473 mmHg 80%
    03:00 +7°C° 0.2 mm 1 mps 473 mmHg 78%
    04:00 +7°C° 0.2 mm 1 mps 473 mmHg 76%
    05:00 +7°C° 0.1 mm 1 mps 474 mmHg 74%
    06:00 +7°C° 0.1 mm 2 mps 474 mmHg 72%
    07:00 +7°C° 0.1 mm 2 mps 475 mmHg 69%
    08:00 +9°C° 0 mm 2 mps 476 mmHg 62%
    09:00 +10°C° 0 mm 2 mps 477 mmHg 54%
    10:00 +13°C° 0 mm 2 mps 477 mmHg 46%
    11:00 +14°C° 0.2 mm 2 mps 477 mmHg 44%
    12:00 +13°C° 0.2 mm 3 mps 477 mmHg 41%
    13:00 +14°C° 0.2 mm 3 mps 477 mmHg 39%
    14:00 +14°C° 0.2 mm 3 mps 476 mmHg 40%
    15:00 +13°C° 0.2 mm 3 mps 476 mmHg 40%
    16:00 +13°C° 0.2 mm 3 mps 475 mmHg 41%
    17:00 +12°C° 0.2 mm 2 mps 475 mmHg 51%
    18:00 +9°C° 0.2 mm 2 mps 474 mmHg 61%
    19:00 +8°C° 0.2 mm 1 mps 473 mmHg 71%
    20:00 +8°C° 0 mm 1 mps 473 mmHg 69%
    21:00 +7°C° 0 mm 1 mps 473 mmHg 67%
    22:00 +7°C° 0 mm 1 mps 473 mmHg 66%
    23:00 +7°C° 0 mm 1 mps 472 mmHg 62%
    Show more